TimeEDT,TemperatureF,Dew PointF,Humidity,Sea Level PressureIn,VisibilityMPH,Wind Direction,Wind SpeedMPH,Gust SpeedMPH,PrecipitationIn,Events,Conditions,WindDirDegrees,DateUTC
12:15 AM,55.0,54.0,96,30.29,7.0,Calm,Calm,-,N/A,,Overcast,0,2013-05-03 04:15:00
12:35 AM,55.4,54.0,95,30.28,10.0,Calm,Calm,-,N/A,,Overcast,0,2013-05-03 04:35:00
12:55 AM,54.9,53.4,95,30.28,10.0,Calm,Calm,-,N/A,,Mostly Cloudy,0,2013-05-03 04:55:00
1:15 AM,54.0,52.9,96,30.27,7.0,Calm,Calm,-,N/A,,Scattered Clouds,0,2013-05-03 05:15:00
1:35 AM,53.8,52.3,95,30.27,10.0,Calm,Calm,-,N/A,,Scattered Clouds,0,2013-05-03 05:35:00
1:55 AM,53.6,52.3,95,30.26,10.0,Calm,Calm,-,N/A,,Mostly Cloudy,0,2013-05-03 05:55:00
2:15 AM,54.0,52.7,95,30.26,10.0,Calm,Calm,-,N/A,,Overcast,0,2013-05-03 06:15:00
2:35 AM,53.4,52.0,95,30.26,10.0,Calm,Calm,-,N/A,,Scattered Clouds,0,2013-05-03 06:35:00
2:55 AM,52.0,51.3,97,30.25,7.0,Calm,Calm,-,N/A,,Clear,0,2013-05-03 06:55:00
3:15 AM,50.5,50.2,99,30.25,5.0,Calm,Calm,-,N/A,,Clear,0,2013-05-03 07:15:00
3:35 AM,48.7,48.4,99,30.25,4.0,Calm,Calm,-,N/A,,Clear,0,2013-05-03 07:35:00
3:55 AM,47.7,47.3,99,30.25,4.0,Calm,Calm,-,N/A,,Clear,0,2013-05-03 07:55:00
4:15 AM,48.6,48.6,100,30.25,5.0,Calm,Calm,-,N/A,,Clear,0,2013-05-03 08:15:00
4:35 AM,48.0,48.0,100,30.25,7.0,Calm,Calm,-,N/A,,Clear,0,2013-05-03 08:35:00
4:55 AM,46.8,46.8,100,30.25,4.0,Calm,Calm,-,N/A,,Scattered Clouds,0,2013-05-03 08:55:00
5:15 AM,45.5,45.5,100,30.26,3.0,Calm,Calm,-,N/A,,Scattered Clouds,0,2013-05-03 09:15:00
5:35 AM,44.6,44.6,100,30.26,5.0,Calm,Calm,-,N/A,,Scattered Clouds,0,2013-05-03 09:35:00
5:55 AM,45.1,45.1,100,30.26,5.0,Calm,Calm,-,N/A,,Clear,0,2013-05-03 09:55:00
6:15 AM,43.5,43.5,100,30.26,3.0,Calm,Calm,-,N/A,,Scattered Clouds,0,2013-05-03 10:15:00
6:35 AM,43.7,43.7,100,30.27,4.0,Calm,Calm,-,N/A,,Clear,0,2013-05-03 10:35:00
6:55 AM,46.2,46.2,100,30.27,5.0,Calm,Calm,-,N/A,,Clear,0,2013-05-03 10:55:00
7:15 AM,47.8,47.8,100,30.28,7.0,Calm,Calm,-,N/A,,Clear,0,2013-05-03 11:15:00
7:35 AM,48.4,48.4,100,30.28,7.0,Calm,Calm,-,N/A,,Clear,0,2013-05-03 11:35:00
7:55 AM,49.1,48.9,99,30.28,7.0,Calm,Calm,-,N/A,,Clear,0,2013-05-03 11:55:00
8:15 AM,50.0,49.1,97,30.29,4.0,Calm,Calm,-,N/A,,Clear,0,2013-05-03 12:15:00
8:35 AM,50.9,49.5,95,30.29,4.0,NE,4.6,-,N/A,,Clear,40,2013-05-03 12:35:00
8:55 AM,51.8,49.1,90,30.30,2.5,NE,3.5,-,N/A,,Scattered Clouds,40,2013-05-03 12:55:00
9:15 AM,52.7,49.1,88,30.30,7.0,NE,3.5,-,N/A,,Scattered Clouds,40,2013-05-03 13:15:00
9:35 AM,54.5,49.1,82,30.30,3.0,NE,5.8,-,N/A,,Haze,50,2013-05-03 13:35:00
9:55 AM,56.7,49.3,76,30.30,2.5,NE,5.8,-,N/A,,Haze,50,2013-05-03 13:55:00
10:15 AM,56.5,48.9,76,30.30,1.8,ENE,6.9,-,N/A,,Haze,60,2013-05-03 14:15:00
10:35 AM,57.0,48.6,73,30.30,1.5,NE,8.1,-,N/A,,Haze,50,2013-05-03 14:35:00
10:55 AM,58.1,48.0,69,30.30,1.2,NE,8.1,-,N/A,,Haze,40,2013-05-03 14:55:00
11:15 AM,58.3,47.7,68,30.30,5.0,ENE,6.9,-,N/A,,Haze,60,2013-05-03 15:15:00
11:35 AM,61.3,49.1,64,30.30,7.0,East,6.9,-,N/A,,Mostly Cloudy,80,2013-05-03 15:35:00
11:55 AM,61.7,48.6,62,30.29,7.0,NNE,4.6,-,N/A,,Mostly Cloudy,30,2013-05-03 15:55:00
12:15 PM,62.4,48.2,60,30.29,10.0,NE,4.6,-,N/A,,Mostly Cloudy,50,2013-05-03 16:15:00
12:35 PM,63.0,49.3,61,30.28,10.0,East,4.6,-,N/A,,Mostly Cloudy,80,2013-05-03 16:35:00
12:55 PM,62.8,48.6,60,30.28,10.0,ENE,8.1,-,N/A,,Mostly Cloudy,60,2013-05-03 16:55:00
1:15 PM,63.5,48.7,59,30.27,10.0,ENE,3.5,-,N/A,,Mostly Cloudy,70,2013-05-03 17:15:00
1:35 PM,63.9,48.7,58,30.26,10.0,East,4.6,-,N/A,,Mostly Cloudy,90,2013-05-03 17:35:00
1:55 PM,64.2,48.2,56,30.25,10.0,NE,3.5,-,N/A,,Mostly Cloudy,40,2013-05-03 17:55:00
2:15 PM,65.3,48.7,55,30.25,10.0,NE,3.5,-,N/A,,Mostly Cloudy,50,2013-05-03 18:15:00
2:35 PM,65.7,47.8,53,30.25,10.0,East,6.9,-,N/A,,Scattered Clouds,100,2013-05-03 18:35:00
2:55 PM,66.0,48.4,53,30.24,10.0,NE,6.9,-,N/A,,Scattered Clouds,50,2013-05-03 18:55:00
3:15 PM,66.4,48.9,53,30.23,10.0,NE,5.8,-,N/A,,Scattered Clouds,50,2013-05-03 19:15:00
3:35 PM,66.6,48.9,53,30.22,7.0,ENE,4.6,-,N/A,,Scattered Clouds,60,2013-05-03 19:35:00
3:55 PM,65.3,49.6,57,30.21,10.0,Calm,Calm,-,N/A,,Overcast,0,2013-05-03 19:55:00
4:15 PM,65.8,50.2,57,30.21,10.0,Calm,Calm,-,N/A,,Overcast,0,2013-05-03 20:15:00
4:35 PM,65.8,49.5,55,30.21,10.0,ENE,5.8,-,N/A,,Mostly Cloudy,70,2013-05-03 20:35:00
4:55 PM,65.3,49.5,57,30.21,10.0,Calm,Calm,-,N/A,,Overcast,0,2013-05-03 20:55:00
5:15 PM,66.2,49.8,55,30.20,10.0,ENE,4.6,-,N/A,,Overcast,70,2013-05-03 21:15:00
5:35 PM,65.5,50.4,58,30.20,10.0,East,3.5,-,N/A,,Scattered Clouds,80,2013-05-03 21:35:00
5:55 PM,65.3,49.8,57,30.20,10.0,ENE,3.5,-,N/A,,Scattered Clouds,60,2013-05-03 21:55:00
6:15 PM,64.6,50.9,61,30.19,10.0,NE,4.6,-,N/A,,Mostly Cloudy,50,2013-05-03 22:15:00
6:35 PM,64.4,50.7,61,30.19,10.0,Calm,Calm,-,N/A,,Scattered Clouds,0,2013-05-03 22:35:00
6:55 PM,63.7,51.3,64,30.19,10.0,Calm,Calm,-,N/A,,Clear,0,2013-05-03 22:55:00
7:15 PM,62.8,51.8,67,30.18,10.0,Calm,Calm,-,N/A,,Clear,0,2013-05-03 23:15:00
7:35 PM,62.4,51.8,68,30.19,10.0,Calm,Calm,-,N/A,,Clear,0,2013-05-03 23:35:00
7:55 PM,61.9,49.3,63,30.19,10.0,ENE,3.5,-,N/A,,Clear,70,2013-05-03 23:55:00
8:15 PM,61.3,45.5,56,30.19,10.0,Calm,Calm,-,N/A,,Clear,0,2013-05-04 00:15:00
8:35 PM,60.3,45.3,58,30.19,10.0,Calm,Calm,-,N/A,,Clear,0,2013-05-04 00:35:00
8:55 PM,59.4,44.8,58,30.20,4.0,NNE,3.5,-,N/A,,Haze,30,2013-05-04 00:55:00
9:15 PM,59.5,43.5,55,30.20,10.0,NE,3.5,-,N/A,,Clear,40,2013-05-04 01:15:00
9:35 PM,59.0,43.0,55,30.21,10.0,ENE,4.6,-,N/A,,Clear,60,2013-05-04 01:35:00
9:55 PM,58.1,43.2,58,30.22,10.0,ENE,4.6,-,N/A,,Clear,60,2013-05-04 01:55:00
10:15 PM,57.2,43.3,60,30.23,10.0,ENE,4.6,-,N/A,,Clear,60,2013-05-04 02:15:00
10:35 PM,56.5,43.7,62,30.23,10.0,ENE,4.6,17.3,N/A,,Clear,70,2013-05-04 02:35:00
10:55 PM,55.6,43.9,65,30.23,10.0,ENE,3.5,-,N/A,,Clear,70,2013-05-04 02:55:00
11:15 PM,54.5,43.7,67,30.22,10.0,ENE,3.5,-,N/A,,Clear,70,2013-05-04 03:15:00
11:35 PM,53.4,43.7,70,30.22,10.0,ENE,4.6,-,N/A,,Clear,60,2013-05-04 03:35:00
11:55 PM,52.7,43.0,70,30.23,10.0,ENE,5.8,-,N/A,,Clear,60,2013-05-04 03:55:00